owner,sensor,date,latitude,longitude,vertical_datum,wind_speed,wind_to_direction,wind_speed_of_gust,qcFlag 
TCOON,ioos:station:TCOON:524:1,2010-08-01T00:00:00Z,29.8672,-93.9310,0.0,2.6,260.0,3.6,'1111122,1111122,1111122' 
TCOON,ioos:station:TCOON:524:1,2010-08-01T00:06:00Z,29.8672,-93.9310,0.0,3.0,214.0,4.3,'11111222,11111222,11111222' 
TCOON,ioos:station:TCOON:524:1,2010-08-01T00:12:00Z,29.8672,-93.9310,0.0,2.2,234.0,3.6,'11111222,11111222,11111222' 
TCOON,ioos:station:TCOON:524:1,2010-08-01T00:18:00Z,29.8672,-93.9310,0.0,3.4,241.0,4.6,'11111222,11111222,11111222' 
TCOON,ioos:station:TCOON:524:1,2010-08-01T00:24:00Z,29.8672,-93.9310,0.0,3.2,240.0,4.2,'11111222,11111222,11111222' 
TCOON,ioos:station:TCOON:524:1,2010-08-01T00:30:00Z,29.8672,-93.9310,0.0,2.9,240.0,4.0,'11111222,11111222,11111222' 
TCOON,ioos:station:TCOON:524:1,2010-08-01T00:36:00Z,29.8672,-93.9310,0.0,2.7,232.0,3.7,'11111222,11111222,11111222' 
TCOON,ioos:station:TCOON:524:1,2010-08-01T00:42:00Z,29.8672,-93.9310,0.0,2.8,230.0,4.1,'11111222,11111222,11111222' 
TCOON,ioos:station:TCOON:524:1,2010-08-01T00:48:00Z,29.8672,-93.9310,0.0,3.4,229.0,4.7,'11111222,11111222,11111222' 
TCOON,ioos:station:TCOON:524:1,2010-08-01T00:54:00Z,29.8672,-93.9310,0.0,3.3,236.0,4.2,'11111222,11111222,11111222' 
TCOON,ioos:station:TCOON:524:1,2010-08-01T01:00:00Z,29.8672,-93.9310,0.0,3.6,260.0,4.6,'1111122,1111122,1111122' 
TCOON,ioos:station:TCOON:524:1,2010-08-01T02:06:00Z,29.8672,-93.9310,0.0,4.6,181.0,5.5,'11111222,11111222,11111222' 
TCOON,ioos:station:TCOON:524:1,2010-08-01T02:12:00Z,29.8672,-93.9310,0.0,5.3,179.0,6.2,'11111222,11111222,11111222' 
TCOON,ioos:station:TCOON:524:1,2010-08-01T02:18:00Z,29.8672,-93.9310,0.0,5.2,178.0,6.0,'11111222,11111222,11111222' 
TCOON,ioos:station:TCOON:524:1,2010-08-01T02:24:00Z,29.8672,-93.9310,0.0,4.8,175.0,6.3,'11111222,11111222,11111222' 
TCOON,ioos:station:TCOON:524:1,2010-08-01T02:30:00Z,29.8672,-93.9310,0.0,4.2,176.0,5.1,'11111222,11111222,11111222' 
TCOON,ioos:station:TCOON:524:1,2010-08-01T02:36:00Z,29.8672,-93.9310,0.0,4.4,190.0,5.4,'11111222,11111222,11111222' 
TCOON,ioos:station:TCOON:524:1,2010-08-01T02:42:00Z,29.8672,-93.9310,0.0,4.1,195.0,5.7,'11111222,11111222,11111222' 
TCOON,ioos:station:TCOON:524:1,2010-08-01T02:48:00Z,29.8672,-93.9310,0.0,4.2,208.0,5.9,'11111222,11111222,11111222' 
TCOON,ioos:station:TCOON:524:1,2010-08-01T02:54:00Z,29.8672,-93.9310,0.0,4.9,197.0,5.9,'11111222,11111222,11111222' 
TCOON,ioos:station:TCOON:524:1,2010-08-01T03:00:00Z,29.8672,-93.9310,0.0,4.6,180.0,5.7,'1111122,1111122,1111122' 
TCOON,ioos:station:TCOON:524:1,2010-08-01T03:06:00Z,29.8672,-93.9310,0.0,3.9,190.0,5.3,'11111222,11111222,11111222' 
TCOON,ioos:station:TCOON:524:1,2010-08-01T03:12:00Z,29.8672,-93.9310,0.0,4.2,182.0,5.5,'11111222,11111222,11111222' 
TCOON,ioos:station:TCOON:524:1,2010-08-01T03:18:00Z,29.8672,-93.9310,0.0,4.5,182.0,5.4,'11111222,11111222,11111222' 
TCOON,ioos:station:TCOON:524:1,2010-08-01T03:24:00Z,29.8672,-93.9310,0.0,4.8,181.0,5.8,'11111222,11111222,11111222' 
TCOON,ioos:station:TCOON:524:1,2010-08-01T03:30:00Z,29.8672,-93.9310,0.0,4.4,183.0,5.6,'11111222,11111222,11111222' 
TCOON,ioos:station:TCOON:524:1,2010-08-01T03:36:00Z,29.8672,-93.9310,0.0,4.5,179.0,5.5,'11111222,11111222,11111222' 
TCOON,ioos:station:TCOON:524:1,2010-08-01T03:42:00Z,29.8672,-93.9310,0.0,4.4,179.0,5.3,'11111222,11111222,11111222' 
TCOON,ioos:station:TCOON:524:1,2010-08-01T03:48:00Z,29.8672,-93.9310,0.0,3.7,186.0,5.0,'11111222,11111222,11111222' 
TCOON,ioos:station:TCOON:524:1,2010-08-01T03:54:00Z,29.8672,-93.9310,0.0,3.3,201.0,4.7,'11111222,11111222,11111222' 
TCOON,ioos:station:TCOON:524:1,2010-08-01T04:00:00Z,29.8672,-93.9310,0.0,3.2,188.0,3.9,'11111222,11111222,11111222' 
TCOON,ioos:station:TCOON:524:1,2010-08-01T04:06:00Z,29.8672,-93.9310,0.0,3.2,194.0,3.9,'11111222,11111222,11111222' 
TCOON,ioos:station:TCOON:524:1,2010-08-01T04:12:00Z,29.8672,-93.9310,0.0,3.7,204.0,4.6,'11111222,11111222,11111222' 
TCOON,ioos:station:TCOON:524:1,2010-08-01T04:18:00Z,29.8672,-93.9310,0.0,3.9,188.0,4.9,'11111222,11111222,11111222' 
TCOON,ioos:station:TCOON:524:1,2010-08-01T04:24:00Z,29.8672,-93.9310,0.0,3.9,181.0,4.4,'11111222,11111222,11111222' 
TCOON,ioos:station:TCOON:524:1,2010-08-01T04:30:00Z,29.8672,-93.9310,0.0,4.3,176.0,5.2,'11111222,11111222,11111222' 
TCOON,ioos:station:TCOON:524:1,2010-08-01T04:36:00Z,29.8672,-93.9310,0.0,4.1,179.0,5.1,'11111222,11111222,11111222' 
TCOON,ioos:station:TCOON:524:1,2010-08-01T04:42:00Z,29.8672,-93.9310,0.0,4.2,185.0,5.0,'11111222,11111222,11111222' 
TCOON,ioos:station:TCOON:524:1,2010-08-01T04:48:00Z,29.8672,-93.9310,0.0,4.4,189.0,5.3,'11111222,11111222,11111222' 
TCOON,ioos:station:TCOON:524:1,2010-08-01T04:54:00Z,29.8672,-93.9310,0.0,3.9,184.0,4.8,'11111222,11111222,11111222' 
TCOON,ioos:station:TCOON:524:1,2010-08-01T05:00:00Z,29.8672,-93.9310,0.0,3.8,182.0,4.7,'11111222,11111222,11111222' 
TCOON,ioos:station:TCOON:524:1,2010-08-01T05:06:00Z,29.8672,-93.9310,0.0,3.9,178.0,4.7,'11111222,11111222,11111222' 
TCOON,ioos:station:TCOON:524:1,2010-08-01T05:12:00Z,29.8672,-93.9310,0.0,4.0,180.0,5.0,'11111222,11111222,11111222' 
TCOON,ioos:station:TCOON:524:1,2010-08-01T05:18:00Z,29.8672,-93.9310,0.0,4.0,181.0,5.4,'11111222,11111222,11111222' 
TCOON,ioos:station:TCOON:524:1,2010-08-01T05:24:00Z,29.8672,-93.9310,0.0,4.0,181.0,5.0,'11111222,11111222,11111222' 
TCOON,ioos:station:TCOON:524:1,2010-08-01T05:30:00Z,29.8672,-93.9310,0.0,4.3,181.0,5.2,'11111222,11111222,11111222' 
TCOON,ioos:station:TCOON:524:1,2010-08-01T05:36:00Z,29.8672,-93.9310,0.0,4.2,181.0,5.3,'11111222,11111222,11111222' 
TCOON,ioos:station:TCOON:524:1,2010-08-01T05:42:00Z,29.8672,-93.9310,0.0,3.6,183.0,4.4,'11111222,11111222,11111222' 
TCOON,ioos:station:TCOON:524:1,2010-08-01T05:48:00Z,29.8672,-93.9310,0.0,3.9,181.0,4.7,'11111222,11111222,11111222' 
TCOON,ioos:station:TCOON:524:1,2010-08-01T05:54:00Z,29.8672,-93.9310,0.0,4.0,179.0,4.7,'11111222,11111222,11111222' 
TCOON,ioos:station:TCOON:524:1,2010-08-01T06:00:00Z,29.8672,-93.9310,0.0,4.2,180.0,5.2,'11111222,11111222,11111222' 
TCOON,ioos:station:TCOON:524:1,2010-08-01T06:06:00Z,29.8672,-93.9310,0.0,4.1,179.0,5.2,'11111222,11111222,11111222' 
TCOON,ioos:station:TCOON:524:1,2010-08-01T06:12:00Z,29.8672,-93.9310,0.0,4.7,176.0,5.5,'11111222,11111222,11111222' 
TCOON,ioos:station:TCOON:524:1,2010-08-01T06:18:00Z,29.8672,-93.9310,0.0,4.1,184.0,5.6,'11111222,11111222,11111222' 
TCOON,ioos:station:TCOON:524:1,2010-08-01T06:24:00Z,29.8672,-93.9310,0.0,3.6,197.0,4.7,'11111222,11111222,11111222' 
TCOON,ioos:station:TCOON:524:1,2010-08-01T06:30:00Z,29.8672,-93.9310,0.0,3.7,188.0,4.5,'11111222,11111222,11111222' 
TCOON,ioos:station:TCOON:524:1,2010-08-01T06:36:00Z,29.8672,-93.9310,0.0,4.2,174.0,4.9,'11111222,11111222,11111222' 
TCOON,ioos:station:TCOON:524:1,2010-08-01T06:42:00Z,29.8672,-93.9310,0.0,4.2,179.0,5.0,'11111222,11111222,11111222' 
TCOON,ioos:station:TCOON:524:1,2010-08-01T06:48:00Z,29.8672,-93.9310,0.0,3.8,183.0,4.8,'11111222,11111222,11111222' 
TCOON,ioos:station:TCOON:524:1,2010-08-01T06:54:00Z,29.8672,-93.9310,0.0,3.8,181.0,4.8,'11111222,11111222,11111222' 
TCOON,ioos:station:TCOON:524:1,2010-08-01T07:00:00Z,29.8672,-93.9310,0.0,4.2,181.0,5.4,'11111222,11111222,11111222' 
TCOON,ioos:station:TCOON:524:1,2010-08-01T07:06:00Z,29.8672,-93.9310,0.0,4.5,179.0,5.6,'11111222,11111222,11111222' 
TCOON,ioos:station:TCOON:524:1,2010-08-01T07:12:00Z,29.8672,-93.9310,0.0,3.8,182.0,4.6,'11111222,11111222,11111222' 
TCOON,ioos:station:TCOON:524:1,2010-08-01T07:18:00Z,29.8672,-93.9310,0.0,3.9,181.0,4.5,'11111222,11111222,11111222' 
TCOON,ioos:station:TCOON:524:1,2010-08-01T07:24:00Z,29.8672,-93.9310,0.0,4.0,181.0,5.1,'11111222,11111222,11111222' 
TCOON,ioos:station:TCOON:524:1,2010-08-01T07:30:00Z,29.8672,-93.9310,0.0,3.6,182.0,4.3,'11111222,11111222,11111222' 
TCOON,ioos:station:TCOON:524:1,2010-08-01T07:36:00Z,29.8672,-93.9310,0.0,3.5,192.0,4.8,'11111222,11111222,11111222' 
TCOON,ioos:station:TCOON:524:1,2010-08-01T07:42:00Z,29.8672,-93.9310,0.0,3.9,187.0,4.8,'11111222,11111222,11111222' 
TCOON,ioos:station:TCOON:524:1,2010-08-01T07:48:00Z,29.8672,-93.9310,0.0,3.2,184.0,4.2,'11111222,11111222,11111222' 
TCOON,ioos:station:TCOON:524:1,2010-08-01T07:54:00Z,29.8672,-93.9310,0.0,2.3,204.0,3.3,'11111222,11111222,11111222' 
TCOON,ioos:station:TCOON:524:1,2010-08-01T08:00:00Z,29.8672,-93.9310,0.0,2.2,222.0,2.8,'11111222,11111222,11111222' 
TCOON,ioos:station:TCOON:524:1,2010-08-01T08:06:00Z,29.8672,-93.9310,0.0,2.3,226.0,3.5,'11111222,11111222,11111222' 
TCOON,ioos:station:TCOON:524:1,2010-08-01T08:12:00Z,29.8672,-93.9310,0.0,2.6,212.0,3.2,'11111222,11111222,11111222' 
TCOON,ioos:station:TCOON:524:1,2010-08-01T08:18:00Z,29.8672,-93.9310,0.0,3.1,223.0,4.1,'11111222,11111222,11111222' 
TCOON,ioos:station:TCOON:524:1,2010-08-01T08:24:00Z,29.8672,-93.9310,0.0,2.9,217.0,4.0,'11111222,11111222,11111222' 
TCOON,ioos:station:TCOON:524:1,2010-08-01T08:30:00Z,29.8672,-93.9310,0.0,2.4,227.0,3.3,'11111222,11111222,11111222' 
TCOON,ioos:station:TCOON:524:1,2010-08-01T08:36:00Z,29.8672,-93.9310,0.0,3.1,209.0,3.9,'11111222,11111222,11111222' 
TCOON,ioos:station:TCOON:524:1,2010-08-01T08:42:00Z,29.8672,-93.9310,0.0,3.0,233.0,3.7,'11111222,11111222,11111222' 
TCOON,ioos:station:TCOON:524:1,2010-08-01T08:48:00Z,29.8672,-93.9310,0.0,2.2,218.0,2.6,'11111222,11111222,11111222' 
TCOON,ioos:station:TCOON:524:1,2010-08-01T08:54:00Z,29.8672,-93.9310,0.0,2.3,237.0,3.0,'11111222,11111222,11111222' 
TCOON,ioos:station:TCOON:524:1,2010-08-01T09:00:00Z,29.8672,-93.9310,0.0,2.8,238.0,3.5,'11111222,11111222,11111222' 
TCOON,ioos:station:TCOON:524:1,2010-08-01T09:06:00Z,29.8672,-93.9310,0.0,3.0,253.0,3.9,'11111222,11111222,11111222' 
TCOON,ioos:station:TCOON:524:1,2010-08-01T09:12:00Z,29.8672,-93.9310,0.0,2.5,244.0,3.2,'11111222,11111222,11111222' 
TCOON,ioos:station:TCOON:524:1,2010-08-01T09:18:00Z,29.8672,-93.9310,0.0,2.5,248.0,3.1,'11111222,11111222,11111222' 
TCOON,ioos:station:TCOON:524:1,2010-08-01T09:24:00Z,29.8672,-93.9310,0.0,2.2,238.0,2.7,'11111222,11111222,11111222' 
TCOON,ioos:station:TCOON:524:1,2010-08-01T09:30:00Z,29.8672,-93.9310,0.0,3.0,251.0,4.0,'11111222,11111222,11111222' 
TCOON,ioos:station:TCOON:524:1,2010-08-01T09:36:00Z,29.8672,-93.9310,0.0,3.0,292.0,3.4,'11111222,11111222,11111222' 
TCOON,ioos:station:TCOON:524:1,2010-08-01T09:42:00Z,29.8672,-93.9310,0.0,3.5,300.0,4.8,'11111222,11111222,11111222' 
TCOON,ioos:station:TCOON:524:1,2010-08-01T09:48:00Z,29.8672,-93.9310,0.0,3.0,290.0,3.7,'11111222,11111222,11111222' 
TCOON,ioos:station:TCOON:524:1,2010-08-01T09:54:00Z,29.8672,-93.9310,0.0,2.4,297.0,2.9,'11111222,11111222,11111222' 
TCOON,ioos:station:TCOON:524:1,2010-08-01T10:00:00Z,29.8672,-93.9310,0.0,3.6,300.0,5.1,'1111122,1111122,1111122' 
TCOON,ioos:station:TCOON:524:1,2010-08-01T10:06:00Z,29.8672,-93.9310,0.0,3.8,285.0,5.9,'11111222,11111222,11111222' 
TCOON,ioos:station:TCOON:524:1,2010-08-01T10:12:00Z,29.8672,-93.9310,0.0,3.9,292.0,5.1,'11111222,11111222,11111222' 
TCOON,ioos:station:TCOON:524:1,2010-08-01T10:18:00Z,29.8672,-93.9310,0.0,3.6,295.0,4.7,'11111222,11111222,11111222' 
TCOON,ioos:station:TCOON:524:1,2010-08-01T10:24:00Z,29.8672,-93.9310,0.0,4.5,293.0,6.9,'11111222,11111222,11111222' 
TCOON,ioos:station:TCOON:524:1,2010-08-01T10:30:00Z,29.8672,-93.9310,0.0,4.0,297.0,4.7,'11111222,11111222,11111222' 
TCOON,ioos:station:TCOON:524:1,2010-08-01T10:36:00Z,29.8672,-93.9310,0.0,4.3,297.0,5.7,'11111222,11111222,11111222' 
TCOON,ioos:station:TCOON:524:1,2010-08-01T10:42:00Z,29.8672,-93.9310,0.0,3.9,302.0,4.8,'11111222,11111222,11111222' 
TCOON,ioos:station:TCOON:524:1,2010-08-01T10:48:00Z,29.8672,-93.9310,0.0,3.9,298.0,4.8,'11111222,11111222,11111222' 
TCOON,ioos:station:TCOON:524:1,2010-08-01T10:54:00Z,29.8672,-93.9310,0.0,3.8,302.0,4.8,'11111222,11111222,11111222' 
TCOON,ioos:station:TCOON:524:1,2010-08-01T11:00:00Z,29.8672,-93.9310,0.0,2.8,301.0,4.1,'11111222,11111222,11111222' 
TCOON,ioos:station:TCOON:524:1,2010-08-01T11:06:00Z,29.8672,-93.9310,0.0,3.0,297.0,10.0,'11111222,11111222,11111222' 
TCOON,ioos:station:TCOON:524:1,2010-08-01T11:12:00Z,29.8672,-93.9310,0.0,3.0,300.0,3.6,'11111222,11111222,11111222' 
TCOON,ioos:station:TCOON:524:1,2010-08-01T11:18:00Z,29.8672,-93.9310,0.0,2.6,302.0,3.3,'11111222,11111222,11111222' 
TCOON,ioos:station:TCOON:524:1,2010-08-01T11:24:00Z,29.8672,-93.9310,0.0,3.3,311.0,5.2,'11111222,11111222,11111222' 
TCOON,ioos:station:TCOON:524:1,2010-08-01T11:30:00Z,29.8672,-93.9310,0.0,3.6,309.0,5.0,'11111222,11111222,11111222' 
TCOON,ioos:station:TCOON:524:1,2010-08-01T11:36:00Z,29.8672,-93.9310,0.0,1.8,327.0,2.6,'11111222,11111222,11111222' 
TCOON,ioos:station:TCOON:524:1,2010-08-01T11:42:00Z,29.8672,-93.9310,0.0,2.0,327.0,2.7,'11111222,11111222,11111222' 
TCOON,ioos:station:TCOON:524:1,2010-08-01T11:48:00Z,29.8672,-93.9310,0.0,2.3,335.0,2.8,'11111222,11111222,11111222' 
TCOON,ioos:station:TCOON:524:1,2010-08-01T11:54:00Z,29.8672,-93.9310,0.0,1.7,320.0,2.6,'11111222,11111222,11111222' 
TCOON,ioos:station:TCOON:524:1,2010-08-01T12:00:00Z,29.8672,-93.9310,0.0,2.8,308.0,3.8,'11111222,11111222,11111222' 
TCOON,ioos:station:TCOON:524:1,2010-08-01T12:06:00Z,29.8672,-93.9310,0.0,3.9,318.0,6.7,'11111222,11111222,11111222' 
TCOON,ioos:station:TCOON:524:1,2010-08-01T12:12:00Z,29.8672,-93.9310,0.0,2.2,354.0,2.8,'11111222,11111222,11111222' 
TCOON,ioos:station:TCOON:524:1,2010-08-01T12:18:00Z,29.8672,-93.9310,0.0,2.7,354.0,3.7,'11111222,11111222,11111222' 
TCOON,ioos:station:TCOON:524:1,2010-08-01T12:24:00Z,29.8672,-93.9310,0.0,2.7,334.0,3.5,'11111222,11111222,11111222' 
TCOON,ioos:station:TCOON:524:1,2010-08-01T12:30:00Z,29.8672,-93.9310,0.0,2.9,331.0,3.7,'11111222,11111222,11111222' 
TCOON,ioos:station:TCOON:524:1,2010-08-01T12:36:00Z,29.8672,-93.9310,0.0,3.1,326.0,3.8,'11111222,11111222,11111222' 
TCOON,ioos:station:TCOON:524:1,2010-08-01T12:42:00Z,29.8672,-93.9310,0.0,3.1,329.0,3.5,'11111222,11111222,11111222' 
TCOON,ioos:station:TCOON:524:1,2010-08-01T12:48:00Z,29.8672,-93.9310,0.0,3.8,311.0,5.2,'11111222,11111222,11111222' 
TCOON,ioos:station:TCOON:524:1,2010-08-01T12:54:00Z,29.8672,-93.9310,0.0,4.9,300.0,6.3,'11111222,11111222,11111222' 
TCOON,ioos:station:TCOON:524:1,2010-08-01T13:00:00Z,29.8672,-93.9310,0.0,3.0,301.0,3.9,'11111222,11111222,11111222' 
TCOON,ioos:station:TCOON:524:1,2010-08-01T13:06:00Z,29.8672,-93.9310,0.0,4.4,303.0,5.5,'11111222,11111222,11111222' 
TCOON,ioos:station:TCOON:524:1,2010-08-01T13:12:00Z,29.8672,-93.9310,0.0,3.3,305.0,4.3,'11111222,11111222,11111222' 
TCOON,ioos:station:TCOON:524:1,2010-08-01T13:18:00Z,29.8672,-93.9310,0.0,3.6,296.0,4.8,'11111222,11111222,11111222' 
TCOON,ioos:station:TCOON:524:1,2010-08-01T13:24:00Z,29.8672,-93.9310,0.0,3.6,306.0,4.5,'11111222,11111222,11111222' 
TCOON,ioos:station:TCOON:524:1,2010-08-01T13:30:00Z,29.8672,-93.9310,0.0,3.8,304.0,4.6,'11111222,11111222,11111222' 
TCOON,ioos:station:TCOON:524:1,2010-08-01T13:36:00Z,29.8672,-93.9310,0.0,3.5,317.0,4.4,'11111222,11111222,11111222' 
TCOON,ioos:station:TCOON:524:1,2010-08-01T13:42:00Z,29.8672,-93.9310,0.0,3.8,335.0,5.5,'11111222,11111222,11111222' 
TCOON,ioos:station:TCOON:524:1,2010-08-01T13:48:00Z,29.8672,-93.9310,0.0,4.0,340.0,5.1,'11111222,11111222,11111222' 
TCOON,ioos:station:TCOON:524:1,2010-08-01T13:54:00Z,29.8672,-93.9310,0.0,4.0,330.0,5.7,'11111222,11111222,11111222' 
TCOON,ioos:station:TCOON:524:1,2010-08-01T14:00:00Z,29.8672,-93.9310,0.0,3.1,340.0,4.6,'1111122,1111122,1111122' 
TCOON,ioos:station:TCOON:524:1,2010-08-01T14:06:00Z,29.8672,-93.9310,0.0,3.6,339.0,4.6,'11111222,11111222,11111222' 
TCOON,ioos:station:TCOON:524:1,2010-08-01T14:12:00Z,29.8672,-93.9310,0.0,4.3,343.0,5.1,'11111222,11111222,11111222' 
TCOON,ioos:station:TCOON:524:1,2010-08-01T14:18:00Z,29.8672,-93.9310,0.0,3.4,346.0,4.1,'11111222,11111222,11111222' 
TCOON,ioos:station:TCOON:524:1,2010-08-01T14:24:00Z,29.8672,-93.9310,0.0,3.5,326.0,5.1,'11111222,11111222,11111222' 
TCOON,ioos:station:TCOON:524:1,2010-08-01T14:30:00Z,29.8672,-93.9310,0.0,4.6,331.0,5.4,'11111222,11111222,11111222' 
TCOON,ioos:station:TCOON:524:1,2010-08-01T14:36:00Z,29.8672,-93.9310,0.0,4.2,325.0,5.0,'11111222,11111222,11111222' 
TCOON,ioos:station:TCOON:524:1,2010-08-01T14:42:00Z,29.8672,-93.9310,0.0,3.7,322.0,5.3,'11111222,11111222,11111222' 
TCOON,ioos:station:TCOON:524:1,2010-08-01T14:48:00Z,29.8672,-93.9310,0.0,3.6,309.0,4.6,'11111222,11111222,11111222' 
TCOON,ioos:station:TCOON:524:1,2010-08-01T14:54:00Z,29.8672,-93.9310,0.0,3.0,309.0,4.0,'11111222,11111222,11111222' 
TCOON,ioos:station:TCOON:524:1,2010-08-01T15:00:00Z,29.8672,-93.9310,0.0,3.6,320.0,4.6,'1111122,1111122,1111122' 
TCOON,ioos:station:TCOON:524:1,2010-08-01T15:06:00Z,29.8672,-93.9310,0.0,3.3,330.0,4.5,'11111222,11111222,11111222' 
TCOON,ioos:station:TCOON:524:1,2010-08-01T15:12:00Z,29.8672,-93.9310,0.0,3.3,335.0,4.5,'11111222,11111222,11111222' 
TCOON,ioos:station:TCOON:524:1,2010-08-01T15:18:00Z,29.8672,-93.9310,0.0,3.6,342.0,4.6,'11111222,11111222,11111222' 
TCOON,ioos:station:TCOON:524:1,2010-08-01T15:24:00Z,29.8672,-93.9310,0.0,3.7,337.0,4.7,'11111222,11111222,11111222' 
TCOON,ioos:station:TCOON:524:1,2010-08-01T15:30:00Z,29.8672,-93.9310,0.0,4.0,330.0,4.8,'11111222,11111222,11111222' 
TCOON,ioos:station:TCOON:524:1,2010-08-01T15:36:00Z,29.8672,-93.9310,0.0,3.2,331.0,5.4,'11111222,11111222,11111222' 
TCOON,ioos:station:TCOON:524:1,2010-08-01T15:42:00Z,29.8672,-93.9310,0.0,3.4,350.0,4.8,'11111222,11111222,11111222' 
TCOON,ioos:station:TCOON:524:1,2010-08-01T15:48:00Z,29.8672,-93.9310,0.0,3.1,356.0,4.7,'11111222,11111222,11111222' 
TCOON,ioos:station:TCOON:524:1,2010-08-01T15:54:00Z,29.8672,-93.9310,0.0,4.2,336.0,4.9,'11111222,11111222,11111222' 
TCOON,ioos:station:TCOON:524:1,2010-08-01T16:00:00Z,29.8672,-93.9310,0.0,4.1,350.0,5.1,'1111122,1111122,1111122' 
TCOON,ioos:station:TCOON:524:1,2010-08-01T17:06:00Z,29.8672,-93.9310,0.0,3.0,342.0,4.6,'11111222,11111222,11111222' 
TCOON,ioos:station:TCOON:524:1,2010-08-01T17:12:00Z,29.8672,-93.9310,0.0,2.6,4.0,3.8,'11111222,11111222,11111222' 
TCOON,ioos:station:TCOON:524:1,2010-08-01T17:18:00Z,29.8672,-93.9310,0.0,2.3,355.0,3.5,'11111222,11111222,11111222' 
TCOON,ioos:station:TCOON:524:1,2010-08-01T17:24:00Z,29.8672,-93.9310,0.0,1.1,9.0,1.6,'11111222,11111222,11111222' 
TCOON,ioos:station:TCOON:524:1,2010-08-01T17:30:00Z,29.8672,-93.9310,0.0,2.5,343.0,3.7,'11111222,11111222,11111222' 
TCOON,ioos:station:TCOON:524:1,2010-08-01T17:36:00Z,29.8672,-93.9310,0.0,2.3,11.0,3.2,'11111222,11111222,11111222' 
TCOON,ioos:station:TCOON:524:1,2010-08-01T17:42:00Z,29.8672,-93.9310,0.0,2.8,349.0,3.8,'11111222,11111222,11111222' 
TCOON,ioos:station:TCOON:524:1,2010-08-01T17:48:00Z,29.8672,-93.9310,0.0,1.2,10.0,2.0,'11111222,11111222,11111222' 
TCOON,ioos:station:TCOON:524:1,2010-08-01T17:54:00Z,29.8672,-93.9310,0.0,2.6,352.0,3.5,'11111222,11111222,11111222' 
TCOON,ioos:station:TCOON:524:1,2010-08-01T18:00:00Z,29.8672,-93.9310,0.0,2.1,20.0,2.6,'1111122,1111122,1111122' 
TCOON,ioos:station:TCOON:524:1,2010-08-01T18:06:00Z,29.8672,-93.9310,0.0,1.4,31.0,2.1,'11111222,11111222,11111222' 
TCOON,ioos:station:TCOON:524:1,2010-08-01T18:12:00Z,29.8672,-93.9310,0.0,0.9,15.0,1.3,'11111222,11111222,11111222' 
TCOON,ioos:station:TCOON:524:1,2010-08-01T18:18:00Z,29.8672,-93.9310,0.0,1.4,46.0,2.9,'11111222,11111222,11111222' 
TCOON,ioos:station:TCOON:524:1,2010-08-01T18:24:00Z,29.8672,-93.9310,0.0,1.8,357.0,2.7,'11111222,11111222,11111222' 
TCOON,ioos:station:TCOON:524:1,2010-08-01T18:30:00Z,29.8672,-93.9310,0.0,1.5,113.0,2.3,'11111222,11111222,11111222' 
TCOON,ioos:station:TCOON:524:1,2010-08-01T18:36:00Z,29.8672,-93.9310,0.0,2.7,112.0,3.8,'11111222,11111222,11111222' 
TCOON,ioos:station:TCOON:524:1,2010-08-01T18:42:00Z,29.8672,-93.9310,0.0,3.1,113.0,3.8,'11111222,11111222,11111222' 
TCOON,ioos:station:TCOON:524:1,2010-08-01T18:48:00Z,29.8672,-93.9310,0.0,2.8,94.0,3.6,'11111222,11111222,11111222' 
TCOON,ioos:station:TCOON:524:1,2010-08-01T18:54:00Z,29.8672,-93.9310,0.0,2.7,112.0,3.5,'11111222,11111222,11111222' 
TCOON,ioos:station:TCOON:524:1,2010-08-01T19:00:00Z,29.8672,-93.9310,0.0,2.6,110.0,3.1,'1111122,1111122,1111122' 
TCOON,ioos:station:TCOON:524:1,2010-08-01T19:06:00Z,29.8672,-93.9310,0.0,3.0,109.0,3.7,'11111222,11111222,11111222' 
TCOON,ioos:station:TCOON:524:1,2010-08-01T19:12:00Z,29.8672,-93.9310,0.0,2.5,101.0,3.3,'11111222,11111222,11111222' 
TCOON,ioos:station:TCOON:524:1,2010-08-01T19:18:00Z,29.8672,-93.9310,0.0,2.5,118.0,3.2,'11111222,11111222,11111222' 
TCOON,ioos:station:TCOON:524:1,2010-08-01T19:24:00Z,29.8672,-93.9310,0.0,3.2,111.0,3.8,'11111222,11111222,11111222' 
TCOON,ioos:station:TCOON:524:1,2010-08-01T19:30:00Z,29.8672,-93.9310,0.0,2.5,116.0,3.4,'11111222,11111222,11111222' 
TCOON,ioos:station:TCOON:524:1,2010-08-01T19:36:00Z,29.8672,-93.9310,0.0,2.9,113.0,3.4,'11111222,11111222,11111222' 
TCOON,ioos:station:TCOON:524:1,2010-08-01T19:42:00Z,29.8672,-93.9310,0.0,2.8,103.0,3.9,'11111222,11111222,11111222' 
TCOON,ioos:station:TCOON:524:1,2010-08-01T19:48:00Z,29.8672,-93.9310,0.0,2.8,105.0,3.7,'11111222,11111222,11111222' 
TCOON,ioos:station:TCOON:524:1,2010-08-01T19:54:00Z,29.8672,-93.9310,0.0,3.2,112.0,4.0,'11111222,11111222,11111222' 
TCOON,ioos:station:TCOON:524:1,2010-08-01T20:00:00Z,29.8672,-93.9310,0.0,2.5,111.0,3.3,'11111222,11111222,11111222' 
TCOON,ioos:station:TCOON:524:1,2010-08-01T20:06:00Z,29.8672,-93.9310,0.0,3.2,108.0,3.6,'11111222,11111222,11111222' 
TCOON,ioos:station:TCOON:524:1,2010-08-01T20:12:00Z,29.8672,-93.9310,0.0,2.7,106.0,3.2,'11111222,11111222,11111222' 
TCOON,ioos:station:TCOON:524:1,2010-08-01T20:18:00Z,29.8672,-93.9310,0.0,2.5,111.0,3.1,'11111222,11111222,11111222' 
TCOON,ioos:station:TCOON:524:1,2010-08-01T20:24:00Z,29.8672,-93.9310,0.0,2.3,115.0,3.1,'11111222,11111222,11111222' 
TCOON,ioos:station:TCOON:524:1,2010-08-01T20:30:00Z,29.8672,-93.9310,0.0,2.0,116.0,2.5,'11111222,11111222,11111222' 
TCOON,ioos:station:TCOON:524:1,2010-08-01T20:36:00Z,29.8672,-93.9310,0.0,1.7,120.0,2.5,'11111222,11111222,11111222' 
TCOON,ioos:station:TCOON:524:1,2010-08-01T20:42:00Z,29.8672,-93.9310,0.0,2.3,109.0,2.7,'11111222,11111222,11111222' 
TCOON,ioos:station:TCOON:524:1,2010-08-01T20:48:00Z,29.8672,-93.9310,0.0,1.8,101.0,2.5,'11111222,11111222,11111222' 
TCOON,ioos:station:TCOON:524:1,2010-08-01T20:54:00Z,29.8672,-93.9310,0.0,2.3,109.0,3.2,'11111222,11111222,11111222' 
TCOON,ioos:station:TCOON:524:1,2010-08-01T21:00:00Z,29.8672,-93.9310,0.0,2.3,122.0,3.2,'11111222,11111222,11111222' 
TCOON,ioos:station:TCOON:524:1,2010-08-01T21:06:00Z,29.8672,-93.9310,0.0,1.6,111.0,2.9,'11111222,11111222,11111222' 
TCOON,ioos:station:TCOON:524:1,2010-08-01T21:12:00Z,29.8672,-93.9310,0.0,2.5,112.0,2.9,'11111222,11111222,11111222' 
TCOON,ioos:station:TCOON:524:1,2010-08-01T21:18:00Z,29.8672,-93.9310,0.0,2.1,117.0,3.0,'11111222,11111222,11111222' 
TCOON,ioos:station:TCOON:524:1,2010-08-01T21:24:00Z,29.8672,-93.9310,0.0,2.3,125.0,3.1,'11111222,11111222,11111222' 
TCOON,ioos:station:TCOON:524:1,2010-08-01T21:30:00Z,29.8672,-93.9310,0.0,2.5,137.0,3.6,'11111222,11111222,11111222' 
TCOON,ioos:station:TCOON:524:1,2010-08-01T21:36:00Z,29.8672,-93.9310,0.0,1.5,141.0,2.1,'11111222,11111222,11111222' 
TCOON,ioos:station:TCOON:524:1,2010-08-01T21:42:00Z,29.8672,-93.9310,0.0,1.9,127.0,2.3,'11111222,11111222,11111222' 
TCOON,ioos:station:TCOON:524:1,2010-08-01T21:48:00Z,29.8672,-93.9310,0.0,1.0,101.0,1.4,'11111222,11111222,11111222' 
TCOON,ioos:station:TCOON:524:1,2010-08-01T21:54:00Z,29.8672,-93.9310,0.0,2.0,151.0,3.2,'11111222,11111222,11111222' 
TCOON,ioos:station:TCOON:524:1,2010-08-01T22:00:00Z,29.8672,-93.9310,0.0,4.0,169.0,4.7,'11111222,11111222,11111222' 
TCOON,ioos:station:TCOON:524:1,2010-08-01T22:06:00Z,29.8672,-93.9310,0.0,4.8,169.0,5.6,'11111222,11111222,11111222' 
TCOON,ioos:station:TCOON:524:1,2010-08-01T22:12:00Z,29.8672,-93.9310,0.0,3.7,169.0,4.8,'11111222,11111222,11111222' 
TCOON,ioos:station:TCOON:524:1,2010-08-01T22:18:00Z,29.8672,-93.9310,0.0,4.4,177.0,5.7,'11111222,11111222,11111222' 